Simultaneous Nadir Overpasses (SNOs) Predictions

Prediction of SNOs between GOES-15 and TERRA Satellite Orbit:

Table of predicted SNOs for the next 14.0 days since TLE Epoch: 9/26/2014
Index Date Time (GOES-15) GOES-15 Lat,Lon TERRA Lat,Lon Distance(km) Time Diff (sec)
1 09/28/2014 07:28:37 0.35,-135.28 0.43,-134.97 35.10 80
2 09/30/2014 07:16:33 0.35,-135.30 1.02,-132.04 370.25 80
3 09/30/2014 19:37:51 -0.35,-135.33 0.07,-137.21 214.21 80
4 10/02/2014 19:28:32 -0.34,-135.35 -0.57,-134.31 118.16 80
5 10/03/2014 07:50:00 0.34,-135.33 -0.55,-139.52 475.87 80
6 10/04/2014 19:16:36 -0.34,-135.36 -1.19,-131.42 448.44 80
7 10/05/2014 07:38:05 0.34,-135.34 0.09,-136.63 146.13 80
8 10/07/2014 07:23:33 0.34,-135.35 0.71,-133.76 181.74 80
9 10/07/2014 19:44:53 -0.34,-135.37 0.44,-138.92 405.00 80
10 10/09/2014 19:33:05 -0.34,-135.37 -0.17,-136.06 79.59 80




NCC Satellite Simultaneous Nadir Overpasses (SNOs) Prediction Service
